When you browse on this site, cookies collect data to enhance your experience and personalize the content and advertising you see.
Visit our Privacy Policy to learn more. By continuing to use the site, you agree to this use of cookies and data.
  • In Österreich
  • Länderverzeichnis
  • Für 7 Tage
  • Wassertemperatur
  • Satellitenkarten
  • Wetterkarte
  • News
  • Widgets
  • user-avatar
    Anmelden

    Stündliche Wetter Salta

    Heute, 19 April, Freitag

    Zeit Temperatur Niederschläge Wind Luftdruck Luftfeuchtigkeit
    00:00 +17°C° 0 mm 0 m/S 650 mmHg 93%
    01:00 +17°C° 0 mm 0 m/S 650 mmHg 91%
    02:00 +17°C° 0 mm 0 m/S 650 mmHg 90%
    03:00 +17°C° 0 mm 0 m/S 650 mmHg 87%
    04:00 +17°C° 0 mm 0 m/S 650 mmHg 85%
    05:00 +17°C° 0 mm 0 m/S 650 mmHg 83%
    06:00 +18°C° 0 mm 0 m/S 650 mmHg 78%
    07:00 +19°C° 0 mm 0 m/S 651 mmHg 74%
    08:00 +22°C° 0 mm 1 m/S 652 mmHg 70%
    09:00 +23°C° 0 mm 1 m/S 652 mmHg 67%
    10:00 +25°C° 0 mm 2 m/S 652 mmHg 65%
    11:00 +26°C° 0 mm 2 m/S 653 mmHg 62%
    12:00 +27°C° 0 mm 2 m/S 652 mmHg 60%
    13:00 +28°C° 0 mm 2 m/S 652 mmHg 58%
    14:00 +29°C° 0 mm 3 m/S 651 mmHg 56%
    15:00 +28°C° 0 mm 2 m/S 651 mmHg 61%
    16:00 +27°C° 0 mm 2 m/S 650 mmHg 66%
    17:00 +26°C° 0 mm 2 m/S 650 mmHg 71%
    18:00 +25°C° 0 mm 1 m/S 650 mmHg 78%
    19:00 +23°C° 0 mm 1 m/S 650 mmHg 84%
    20:00 +20°C° 0 mm 0 m/S 650 mmHg 91%
    21:00 +21°C° 0.1 mm 1 m/S 650 mmHg 92%
    22:00 +21°C° 0.1 mm 1 m/S 651 mmHg 93%
    23:00 +21°C° 0.1 mm 1 m/S 651 mmHg 94%

    Morgen, 20 April, Samstag

    Zeit Temperatur Niederschläge Wind Luftdruck Luftfeuchtigkeit
    00:00 +20°C° 0 mm 1 m/S 651 mmHg 93%
    01:00 +20°C° 0 mm 1 m/S 651 mmHg 92%
    02:00 +18°C° 0 mm 0 m/S 651 mmHg 91%
    03:00 +18°C° 0 mm 0 m/S 651 mmHg 89%
    04:00 +18°C° 0 mm 0 m/S 650 mmHg 86%
    05:00 +20°C° 0 mm 1 m/S 650 mmHg 84%
    06:00 +19°C° 0 mm 0 m/S 651 mmHg 81%
    07:00 +20°C° 0 mm 0 m/S 652 mmHg 77%
    08:00 +20°C° 0 mm 0 m/S 652 mmHg 73%
    09:00 +24°C° 0 mm 1 m/S 653 mmHg 69%
    10:00 +25°C° 0 mm 1 m/S 653 mmHg 65%
    11:00 +27°C° 0 mm 2 m/S 653 mmHg 62%
    12:00 +28°C° 0 mm 2 m/S 652 mmHg 59%
    13:00 +29°C° 0 mm 2 m/S 652 mmHg 56%
    14:00 +29°C° 0 mm 2 m/S 651 mmHg 53%
    15:00 +29°C° 0 mm 2 m/S 651 mmHg 58%
    16:00 +28°C° 0 mm 2 m/S 650 mmHg 63%
    17:00 +27°C° 0 mm 2 m/S 650 mmHg 67%
    18:00 +25°C° 0.1 mm 1 m/S 650 mmHg 73%
    19:00 +24°C° 0.1 mm 1 m/S 650 mmHg 79%
    20:00 +20°C° 0.1 mm 0 m/S 650 mmHg 84%
    21:00 +20°C° 0.1 mm 0 m/S 650 mmHg 87%
    22:00 +19°C° 0.1 mm 0 m/S 651 mmHg 89%
    23:00 +19°C° 0.1 mm 0 m/S 651 mmHg 91%

    übermorgen, 21 April, Sonntag

    Zeit Temperatur Niederschläge Wind Luftdruck Luftfeuchtigkeit
    00:00 +18°C° 0 mm 0 m/S 651 mmHg 92%
    01:00 +18°C° 0 mm 0 m/S 650 mmHg 92%
    02:00 +18°C° 0 mm 0 m/S 650 mmHg 93%
    03:00 +19°C° 0 mm 1 m/S 650 mmHg 91%
    04:00 +19°C° 0 mm 1 m/S 650 mmHg 90%
    05:00 +19°C° 0 mm 1 m/S 650 mmHg 89%
    06:00 +20°C° 0 mm 1 m/S 650 mmHg 86%
    07:00 +21°C° 0 mm 1 m/S 651 mmHg 83%
    08:00 +22°C° 0 mm 1 m/S 652 mmHg 80%
    09:00 +23°C° 0.1 mm 1 m/S 652 mmHg 77%
    10:00 +24°C° 0.1 mm 2 m/S 652 mmHg 75%
    11:00 +25°C° 0.1 mm 3 m/S 653 mmHg 73%
    12:00 +25°C° 0.2 mm 3 m/S 652 mmHg 73%
    13:00 +25°C° 0.2 mm 3 m/S 651 mmHg 72%
    14:00 +25°C° 0.2 mm 2 m/S 650 mmHg 72%
    15:00 +24°C° 0.2 mm 2 m/S 650 mmHg 78%
    16:00 +23°C° 0.2 mm 2 m/S 649 mmHg 84%
    17:00 +21°C° 0.2 mm 2 m/S 649 mmHg 89%
    18:00 +20°C° 0.3 mm 2 m/S 650 mmHg 92%
    19:00 +20°C° 0.3 mm 2 m/S 650 mmHg 94%
    20:00 +19°C° 0.3 mm 2 m/S 651 mmHg 96%
    21:00 +19°C° 0.2 mm 2 m/S 651 mmHg 97%
    22:00 +18°C° 0.2 mm 2 m/S 652 mmHg 97%
    23:00 +19°C° 0.2 mm 1 m/S 652 mmHg 97%

    22 April, Montag

    Zeit Temperatur Niederschläge Wind Luftdruck Luftfeuchtigkeit
    00:00 +18°C° 0.1 mm 1 m/S 652 mmHg 97%
    01:00 +18°C° 0.1 mm 1 m/S 652 mmHg 97%
    02:00 +16°C° 0.1 mm 1 m/S 652 mmHg 97%
    03:00 +16°C° 0.1 mm 1 m/S 652 mmHg 97%
    04:00 +16°C° 0.1 mm 1 m/S 652 mmHg 97%
    05:00 +16°C° 0.1 mm 1 m/S 651 mmHg 96%
    06:00 +16°C° 0 mm 1 m/S 652 mmHg 94%
    07:00 +16°C° 0 mm 1 m/S 652 mmHg 92%
    08:00 +16°C° 0 mm 1 m/S 653 mmHg 90%
    09:00 +17°C° 0 mm 2 m/S 653 mmHg 85%
    10:00 +18°C° 0 mm 2 m/S 653 mmHg 80%
    11:00 +19°C° 0 mm 2 m/S 654 mmHg 74%
    12:00 +19°C° 0 mm 2 m/S 653 mmHg 75%
    13:00 +19°C° 0 mm 2 m/S 652 mmHg 76%
    14:00 +19°C° 0 mm 2 m/S 651 mmHg 77%
    15:00 +18°C° 0 mm 2 m/S 651 mmHg 78%
    16:00 +18°C° 0 mm 2 m/S 651 mmHg 79%
    17:00 +17°C° 0 mm 2 m/S 650 mmHg 80%
    18:00 +16°C° 0 mm 1 m/S 651 mmHg 83%
    19:00 +15°C° 0 mm 1 m/S 652 mmHg 86%
    20:00 +15°C° 0 mm 1 m/S 652 mmHg 89%
    21:00 +14°C° 0 mm 1 m/S 652 mmHg 90%
    22:00 +14°C° 0 mm 1 m/S 653 mmHg 91%
    23:00 +13°C° 0 mm 1 m/S 653 mmHg 91%

    23 April, Dienstag

    Zeit Temperatur Niederschläge Wind Luftdruck Luftfeuchtigkeit
    00:00 +13°C° 0 mm 1 m/S 653 mmHg 91%
    01:00 +13°C° 0 mm 1 m/S 652 mmHg 91%
    02:00 +12°C° 0 mm 1 m/S 652 mmHg 91%
    03:00 +12°C° 0 mm 1 m/S 652 mmHg 90%
    04:00 +11°C° 0 mm 0 m/S 652 mmHg 90%
    05:00 +11°C° 0 mm 0 m/S 651 mmHg 90%
    06:00 +13°C° 0 mm 1 m/S 652 mmHg 86%
    07:00 +14°C° 0 mm 1 m/S 653 mmHg 82%
    08:00 +15°C° 0 mm 1 m/S 653 mmHg 78%
    09:00 +16°C° 0 mm 1 m/S 653 mmHg 74%
    10:00 +18°C° 0 mm 2 m/S 654 mmHg 70%
    11:00 +19°C° 0 mm 2 m/S 654 mmHg 65%
    12:00 +19°C° 0 mm 2 m/S 653 mmHg 66%
    13:00 +20°C° 0 mm 2 m/S 652 mmHg 66%
    14:00 +20°C° 0 mm 2 m/S 651 mmHg 67%
    15:00 +19°C° 0 mm 2 m/S 651 mmHg 71%
    16:00 +19°C° 0 mm 2 m/S 651 mmHg 75%
    17:00 +19°C° 0 mm 1 m/S 650 mmHg 79%
    18:00 +18°C° 0 mm 1 m/S 651 mmHg 82%
    19:00 +16°C° 0 mm 1 m/S 651 mmHg 86%
    20:00 +15°C° 0 mm 1 m/S 651 mmHg 90%
    21:00 +15°C° 0 mm 1 m/S 652 mmHg 91%
    22:00 +14°C° 0 mm 1 m/S 652 mmHg 92%
    23:00 +14°C° 0 mm 1 m/S 652 mmHg 93%

    24 April, Mittwoch

    Zeit Temperatur Niederschläge Wind Luftdruck Luftfeuchtigkeit
    00:00 +13°C° 0 mm 1 m/S 652 mmHg 93%
    01:00 +13°C° 0 mm 1 m/S 651 mmHg 93%
    02:00 +12°C° 0 mm 0 m/S 651 mmHg 93%
    03:00 +12°C° 0 mm 0 m/S 651 mmHg 93%
    04:00 +12°C° 0 mm 0 m/S 651 mmHg 93%
    05:00 +12°C° 0 mm 0 m/S 651 mmHg 93%
    06:00 +12°C° 0 mm 0 m/S 652 mmHg 89%
    07:00 +13°C° 0 mm 0 m/S 652 mmHg 86%
    08:00 +15°C° 0 mm 1 m/S 653 mmHg 82%
    09:00 +16°C° 0 mm 1 m/S 653 mmHg 78%
    10:00 +18°C° 0 mm 2 m/S 653 mmHg 74%
    11:00 +19°C° 0 mm 2 m/S 653 mmHg 70%
    12:00 +19°C° 0.1 mm 2 m/S 652 mmHg 71%
    13:00 +19°C° 0.1 mm 2 m/S 651 mmHg 73%
    14:00 +19°C° 0.1 mm 2 m/S 650 mmHg 75%
    15:00 +18°C° 0.1 mm 2 m/S 650 mmHg 79%
    16:00 +18°C° 0.1 mm 1 m/S 650 mmHg 83%
    17:00 +18°C° 0.1 mm 1 m/S 649 mmHg 87%
    18:00 +16°C° 0.1 mm 1 m/S 650 mmHg 89%
    19:00 +15°C° 0.1 mm 1 m/S 650 mmHg 91%
    20:00 +15°C° 0.1 mm 1 m/S 651 mmHg 92%
    21:00 +13°C° 0 mm 0 m/S 651 mmHg 92%
    22:00 +13°C° 0 mm 0 m/S 651 mmHg 92%
    23:00 +12°C° 0 mm 0 m/S 652 mmHg 92%
    Mehr zeigen